Regional Weather Roundup
Issued by NWS

Home | Current Version | Previous Version | Graphics & Text | Print | Product List | Glossary On
Versions: 1 2 3 4 5 6 7 8 9 10 11 12 13 14 15 16 17 18 19 20 21 22 23 24 25 26 27 28 29 30 31 32 33 34 35 36 37 38 39 40 41 42 43 44 45 46 47 48 49 50
986
ASUS43 KLMK 220910
RWRKY
KENTUCKY REGIONAL WEATHER ROUNDUP
NATIONAL WEATHER SERVICE LOUISVILLE KY
500 AM EDT SUN OCT 22 2017

NOTE "FAIR" INDICATES FEW OR NO CLOUDS BELOW 12,000 FEET
WITH NO SIGNIFICANT WEATHER AND/OR OBSTRUCTIONS TO VISIBILITY.

KYZ001>023-026-027-061>063-070>075-221000-
WESTERN AND SOUTH CENTRAL KENTUCKY

CITY           SKY/WX    TMP DP  RH WIND       PRES   REMARKS
PADUCAH        MOCLDY    68  59  73 S9        30.01F
HENDERSON      CLOUDY    63  56  78 SE7       30.06F
OWENSBORO      MOCLDY    62  54  74 SE10      30.08F
HOPKINSVILLE   MOCLDY    63  55  77 SE7       30.09S
BOWLING GREEN  CLEAR     54  52  93 E3        30.14F
GLASGOW        CLOUDY    57  49  74 CALM      30.17S
$$

KYZ024-025-028>034-038-045-046-053-221000-
NORTH CENTRAL KENTUCKY

CITY           SKY/WX    TMP DP  RH WIND       PRES   REMARKS
LOUISVILLE/SDF PTCLDY    59  50  72 SE8       30.14F
LOUISVILLE/LOU PTCLDY    60  51  72 SE6       30.15F
FORT KNOX      CLEAR     58  49  72 SE6       30.13F
$$

KYZ035>037-039>044-047>052-055>060-089>105-221000-
NORTHEAST KENTUCKY

CITY           SKY/WX    TMP DP  RH WIND       PRES   REMARKS
LEXINGTON      PTCLDY    57  48  72 SE8       30.21S
COVINGTON      PTCLDY    56  49  77 S8        30.17F
FRANKFORT      CLEAR     56  48  74 SE5       30.18F
$$

KYZ054-064>069-076>088-106>120-221000-
SOUTHEAST KENTUCKY

CITY           SKY/WX    TMP DP  RH WIND       PRES   REMARKS
JACKSON        CLEAR     58  47  66 CALM      30.25R
LONDON         CLOUDY    48  46  93 CALM      30.24S
SOMERSET       PTCLDY    46  46 100 CALM      30.25R
MIDDLESBORO    CLOUDY    46  46 100 CALM      30.27S
MONTICELLO     MOSUNNY   57  48  72 SE6       30.23S
$$





USA.gov is the U.S. government's official web portal to all federal, state and local government web resources and services.